Latest Weather Observations for Lake Grace

IDW60801

Issued at 11:05 am WST Saturday 1 November 2014 (issued every 30 minutes, with the page automatically refreshed every 10 minutes)

About weather observations | Map of weather stations | Latest weather observations for WA | Other Formats
Station Details ID: 010911 Name: LAKE GRACE Lat: -33.10 Lon: 118.46 Height: 286.0 m
Data from the previous 72 hours. | See also: Recent months at Lake Grace
Date/Time
WST
Temp
°C
App
Temp
°C
Dew
Point
Rel
Hum
%
Delta-T
°C
Wind Press
QNH
hPa
Press
MSL
hPa
Rain
since 9 am
mm
Dir
 
Spd
km/h
Gust
km/h
Spd
kts
Gust
kts
01/11:00am 21.8 17.8 3.0 29 9.0 NNE 13 20 7 11 1020.1 1019.3 0.0
01/10:30am 20.2 15.8 2.5 31 8.3 NNE 15 22 8 12 1020.8 1019.9 0.0
01/10:00am 19.2 15.3 3.4 35 7.5 NNE 13 26 7 14 1021.2 1020.3 0.0
01/09:30am 18.1 14.3 3.9 39 6.8 NE 13 26 7 14 1021.6 1020.7 0.0
01/09:00am 17.0 13.0 4.7 44 5.9 NE 15 26 8 14 1021.8 1020.9 -
01/08:30am 15.9 11.2 5.2 49 5.2 NNE 19 30 10 16 1021.8 1020.9 -
01/08:00am 14.7 10.6 6.0 56 4.2 NNE 17 26 9 14 1021.9 1021.0 -
01/07:30am 13.3 8.5 5.5 59 3.7 NE 20 32 11 17 1022.2 1021.8 -
01/07:00am 12.4 7.9 6.2 66 3.0 NE 19 28 10 15 1022.0 1021.6 -
01/06:30am 10.9 7.2 6.3 73 2.2 NE 15 26 8 14 1021.6 1021.1 -
01/06:00am 9.7 7.6 6.6 81 1.5 NE 7 13 4 7 1021.5 1021.0 -
01/05:30am 8.6 6.4 6.2 85 1.1 ENE 7 9 4 5 1021.1 1020.6 -
01/05:00am 8.1 6.7 5.7 85 1.1 E 2 7 1 4 1021.0 1020.5 -
01/04:30am 8.1 7.1 5.6 84 1.1 CALM 0 0 0 0 1021.0 1020.5 -
01/04:00am 8.6 6.5 5.7 82 1.3 E 6 9 3 5 1020.7 1020.2 -
01/03:30am 9.1 6.9 6.0 81 1.4 E 7 9 4 5 1020.7 1020.2 -
01/03:00am 9.4 7.1 5.9 79 1.6 E 7 9 4 5 1020.7 1020.2 -
01/02:30am 9.6 7.9 6.0 78 1.7 E 4 7 2 4 1020.6 1020.1 -
01/02:00am 10.0 7.8 6.2 77 1.8 ESE 7 13 4 7 1020.2 1019.8 -
01/01:30am 10.3 8.2 6.5 77 1.8 ESE 7 13 4 7 1020.2 1019.8 -
01/01:00am 10.6 8.1 6.6 76 1.9 ESE 9 17 5 9 1020.4 1020.0 -
01/12:30am 11.0 6.6 6.7 75 2.1 ESE 19 30 10 16 1020.0 1019.6 -
01/12:00am 11.3 7.4 7.2 76 2.0 ESE 17 26 9 14 1020.2 1019.8 -
 
Date/Time
WST
Temp
°C
App
Temp
°C
Dew
Point
Rel
Hum
%
Delta-T
°C
Wind Press
QNH
hPa
Press
MSL
hPa
Rain
since 9 am
mm
Dir
 
Spd
km/h
Gust
km/h
Spd
kts
Gust
kts
31/11:00pm 11.8 7.5 7.7 76 2.0 ESE 20 32 11 17 1020.4 1020.0 0.0
31/10:30pm 12.1 7.9 7.6 74 2.2 ESE 19 28 10 15 1020.7 1020.2 0.0
31/10:00pm 12.6 8.3 7.7 72 2.4 ESE 20 33 11 18 1020.8 1020.3 0.0
31/09:30pm 13.1 8.8 7.8 70 2.6 ESE 20 28 11 15 1020.9 1020.4 0.0
31/09:00pm 13.8 9.1 7.8 67 3.0 ESE 22 33 12 18 1020.6 1020.1 0.0
31/08:30pm 14.5 9.4 7.5 63 3.5 ESE 24 33 13 18 1020.4 1020.0 0.0
31/08:00pm 15.6 10.7 7.1 57 4.2 ESE 22 33 12 18 1019.9 1019.5 0.0
31/07:30pm 16.8 12.2 6.6 51 5.1 ESE 20 33 11 18 1019.4 1019.0 0.0
31/07:00pm 18.2 13.2 4.7 41 6.5 SE 20 28 11 15 1018.9 1018.5 0.0
31/06:30pm 19.3 14.4 4.3 37 7.3 SE 19 28 10 15 1018.5 1018.0 0.0
31/06:00pm 20.3 15.5 4.4 35 7.8 SE 19 28 10 15 1017.9 1017.4 0.0
31/05:30pm 21.0 16.9 4.6 34 8.1 SE 15 24 8 13 1017.5 1017.0 0.0
31/05:00pm 21.7 18.0 4.7 33 8.5 SSE 13 20 7 11 1017.2 1016.7 0.0
31/04:30pm 21.9 17.4 4.0 31 8.8 SSE 17 28 9 15 1016.9 1016.4 0.0
31/04:00pm 21.9 18.1 4.0 31 8.8 SSE 13 24 7 13 1016.6 1016.2 0.0
31/03:30pm 22.3 17.5 4.4 31 8.9 SSE 19 30 10 16 1016.2 1015.8 0.0
31/03:00pm 22.5 17.6 4.1 30 9.1 SSE 19 30 10 16 1016.2 1015.8 0.0
31/02:30pm 22.3 18.4 3.4 29 9.2 S 13 22 7 12 1016.2 1015.8 0.0
31/02:00pm 21.5 17.7 4.1 32 8.5 SSE 13 20 7 11 1016.3 1015.9 0.0
31/01:30pm 21.9 18.2 4.5 32 8.6 SW 13 22 7 12 1016.6 1016.2 0.0
31/01:00pm 20.6 16.9 4.2 34 8.0 SSE 13 19 7 10 1016.6 1016.2 0.0
31/12:30pm 20.9 15.9 4.5 34 8.1 S 20 30 11 16 1016.7 1016.3 0.0
31/12:00pm 20.2 15.3 4.3 35 7.8 SE 19 28 10 15 1016.7 1016.3 0.0
31/11:30am 19.8 15.2 3.9 35 7.7 S 17 26 9 14 1016.7 1016.3 0.0
31/11:00am 18.7 13.9 2.5 34 7.5 SSE 17 30 9 16 1017.1 1016.6 0.0
31/10:30am 18.0 13.3 1.1 32 7.6 S 15 28 8 15 1017.2 1016.7 0.0
31/10:00am 17.2 12.1 3.1 39 6.6 S 19 33 10 18 1017.3 1016.8 0.0
31/09:30am 16.2 11.9 5.2 48 5.3 S 17 30 9 16 1017.3 1016.8 0.0
31/09:00am 15.5 10.7 4.5 48 5.2 S 19 32 10 17 1017.1 1016.6 -
31/08:30am 15.0 10.1 5.2 52 4.7 S 20 30 11 16 1016.7 1016.3 -
31/08:00am 14.1 9.2 4.9 54 4.3 S 20 32 11 17 1016.6 1016.2 -
31/07:30am 14.0 9.1 6.8 62 3.5 S 22 33 12 18 1016.1 1015.7 -
31/07:00am 13.2 9.0 8.3 72 2.5 S 20 30 11 16 1015.8 1015.3 -
31/06:30am 12.4 8.7 10.1 86 1.2 S 20 28 11 15 1015.7 1015.2 -
31/06:00am 12.8 9.4 10.7 87 1.1 S 19 30 10 16 1015.2 1014.7 -
31/05:30am 12.5 8.2 10.7 89 1.0 S 24 37 13 20 1014.5 1014.0 -
31/05:00am 13.8 10.4 11.1 84 1.4 S 20 33 11 18 1013.9 1013.4 -
31/04:30am 13.8 12.1 11.3 85 1.3 WSW 11 17 6 9 1013.3 1012.8 -
31/04:00am 14.0 10.7 10.8 81 1.7 WSW 19 30 10 16 1012.9 1012.5 -
31/03:30am 14.3 12.3 10.1 76 2.2 WSW 11 17 6 9 1012.5 1012.0 -
31/03:00am 14.1 12.0 9.9 76 2.2 WNW 11 15 6 8 1012.4 1011.9 0.0
31/02:30am 14.2 12.1 9.8 75 2.3 W 11 19 6 10 1012.3 1011.8 -
31/02:00am 14.1 11.6 9.7 75 2.3 W 13 17 7 9 1012.4 1011.9 -
31/01:30am 13.4 11.9 9.1 75 2.2 NW 7 9 4 5 1012.3 1011.8 -
31/01:00am 13.2 11.7 8.3 72 2.5 N 6 9 3 5 1012.2 1011.7 -
31/12:30am 14.0 12.3 8.2 68 2.9 WNW 7 11 4 6 1012.5 1012.0 -
31/12:00am 14.2 12.1 8.2 67 3.0 W 9 11 5 6 1012.9 1012.5 -
 
Date/Time
WST
Temp
°C
App
Temp
°C
Dew
Point
Rel
Hum
%
Delta-T
°C
Wind Press
QNH
hPa
Press
MSL
hPa
Rain
since 9 am
mm
Dir
 
Spd
km/h
Gust
km/h
Spd
kts
Gust
kts
30/11:30pm 14.3 12.1 8.0 66 3.2 W 9 17 5 9 1012.9 1012.5 -
30/11:00pm 14.5 12.0 8.2 66 3.2 WSW 11 17 6 9 1013.2 1012.7 -
30/10:30pm 14.7 11.4 8.2 65 3.3 WSW 15 24 8 13 1013.4 1012.9 -
30/10:00pm 15.0 11.1 8.7 66 3.2 WSW 19 32 10 17 1013.4 1012.9 -
30/09:30pm 15.5 11.1 9.0 65 3.4 WSW 22 30 12 16 1012.9 1012.5 -
30/09:00pm 16.3 12.4 9.3 63 3.7 WSW 20 33 11 18 1012.9 1012.5 0.0
30/08:30pm 17.3 13.1 9.7 61 4.0 WSW 22 37 12 20 1012.4 1011.9 -
30/08:00pm 19.0 15.2 9.8 55 5.0 WSW 20 33 11 18 1011.6 1011.1 -
30/07:30pm 20.5 15.5 9.4 49 6.0 WSW 26 39 14 21 1011.2 1010.7 -
30/07:00pm 21.7 18.0 10.2 48 6.3 WSW 20 37 11 20 1010.5 1010.0 -
30/06:30pm 22.9 18.6 10.7 46 6.8 WSW 24 41 13 22 1009.9 1009.4 -
30/06:00pm 24.7 20.0 12.0 45 7.3 WSW 28 54 15 29 1009.2 1008.7 -
30/05:58pm 24.7 20.0 12.0 45 7.3 WSW 28 54 15 29 1009.2 1008.7 -
30/05:30pm 25.8 21.6 12.3 43 7.9 WSW 26 43 14 23 1008.7 1008.2 -
30/05:00pm 28.4 24.0 6.5 25 11.8 W 19 30 10 16 1008.2 1007.7 -
30/04:30pm 28.9 24.4 6.9 25 11.9 W 20 30 11 16 1008.0 1007.5 -
30/04:00pm 29.6 25.2 7.5 25 12.1 W 20 30 11 16 1008.1 1007.6 -
30/03:30pm 29.6 26.2 9.2 28 11.5 W 17 26 9 14 1008.0 1007.5 -
30/03:00pm 28.8 25.4 9.0 29 11.1 WSW 17 28 9 15 1008.2 1007.7 -
30/02:30pm 29.7 25.6 8.7 27 11.7 WNW 20 33 11 18 1008.4 1007.9 -
30/02:00pm 28.4 25.0 10.6 33 10.2 WNW 19 28 10 15 1008.9 1008.4 -
30/01:30pm 28.0 26.7 12.4 38 9.2 WSW 11 22 6 12 1009.3 1008.8 -
30/10:30am 20.6 19.6 12.3 59 4.7 S 9 15 5 8 1012.2 1011.7 0.0
30/10:00am 19.7 18.4 12.5 63 4.1 SW 11 17 6 9 1012.7 1012.2 0.0
30/09:30am 19.2 18.7 12.5 65 3.8 E 7 13 4 7 1013.2 1012.7 0.0
30/09:00am 18.6 18.1 12.8 69 3.3 E 7 11 4 6 1013.4 1012.9 0.0
30/08:30am 17.5 17.0 12.8 74 2.7 E 7 9 4 5 1013.6 1013.1 0.0
30/08:00am 15.7 14.8 12.5 81 1.8 S 9 15 5 8 1013.9 1013.4 0.0
30/07:30am 14.7 13.6 11.8 83 1.6 S 9 13 5 7 1014.5 1014.0 0.0
30/07:00am 14.7 14.1 12.2 85 1.4 E 7 11 4 6 1014.4 1013.9 0.0
30/06:30am 14.3 12.5 12.0 86 1.3 ENE 13 15 7 8 1013.8 1013.3 0.0
30/06:00am 14.1 12.6 12.0 87 1.1 E 11 19 6 10 1013.6 1013.1 0.0
30/05:30am 14.1 12.6 12.0 87 1.1 E 11 19 6 10 1013.5 1013.0 0.0
30/05:00am 14.2 12.4 12.1 87 1.2 SSE 13 19 7 10 1012.9 1012.5 0.0
30/04:30am 14.0 12.1 11.7 86 1.2 SSE 13 19 7 10 1012.8 1012.3 0.0
30/04:00am 14.2 12.3 11.9 86 1.3 SE 13 19 7 10 1012.8 1012.3 0.0
30/03:30am 14.5 12.7 12.2 86 1.3 ESE 13 19 7 10 1013.3 1012.8 0.0
30/03:00am 14.7 13.3 12.2 85 1.4 E 11 17 6 9 1013.7 1013.2 0.0
30/02:30am 14.6 12.9 12.3 86 1.3 E 13 17 7 9 1013.9 1013.4 0.0
30/02:00am 14.7 13.0 12.6 87 1.2 ENE 13 22 7 12 1014.4 1013.9 0.0
30/01:30am 14.6 12.4 12.1 85 1.4 E 15 26 8 14 1013.9 1013.4 0.0
30/01:00am 14.7 12.9 12.2 85 1.4 E 13 20 7 11 1014.2 1013.7 0.0
30/12:30am 14.6 11.6 11.9 84 1.5 ENE 19 26 10 14 1014.1 1013.6 0.0
30/12:00am 14.7 12.4 11.8 83 1.6 E 15 24 8 13 1014.0 1013.5 0.0
 
Date/Time
WST
Temp
°C
App
Temp
°C
Dew
Point
Rel
Hum
%
Delta-T
°C
Wind Press
QNH
hPa
Press
MSL
hPa
Rain
since 9 am
mm
Dir
 
Spd
km/h
Gust
km/h
Spd
kts
Gust
kts
29/11:30pm 14.9 12.7 12.0 83 1.6 E 15 22 8 12 1014.0 1013.5 0.0
29/11:00pm 14.8 12.2 11.9 83 1.6 ESE 17 26 9 14 1014.4 1013.9 0.0
29/10:30pm 14.8 12.1 11.8 82 1.6 E 17 26 9 14 1014.6 1014.1 0.0
29/10:00pm 15.0 13.1 11.8 81 1.8 SE 13 17 7 9 1014.8 1014.3 0.0
29/09:30pm 15.3 12.3 11.9 80 1.9 E 19 26 10 14 1014.2 1013.7 0.0
29/09:00pm 15.6 11.9 11.6 77 2.2 E 22 37 12 20 1013.7 1013.2 0.0
29/08:30pm 16.4 13.3 11.6 73 2.6 E 19 26 10 14 1014.2 1013.7 0.0
29/08:00pm 17.4 14.8 11.9 70 3.1 E 17 24 9 13 1014.2 1013.7 0.0
29/07:30pm 18.4 16.6 12.2 67 3.5 E 13 20 7 11 1014.0 1013.5 0.0
29/07:00pm 19.3 17.6 12.3 64 4.0 E 13 20 7 11 1013.9 1013.4 0.0
29/06:30pm 20.7 18.1 12.1 58 4.9 E 17 26 9 14 1013.7 1013.2 0.0
29/06:00pm 22.3 19.9 12.8 55 5.5 ESE 17 22 9 12 1013.4 1012.9 0.0
29/05:30pm 23.4 20.5 13.0 52 6.1 E 20 28 11 15 1013.0 1012.6 0.0
29/05:00pm 23.9 20.8 12.2 48 6.8 ESE 20 28 11 15 1012.7 1012.2 0.0
29/04:30pm 24.7 22.3 12.6 47 7.1 SE 17 24 9 13 1012.7 1012.2 0.0
29/04:00pm 24.4 21.9 12.4 47 7.0 S 17 26 9 14 1012.6 1012.1 0.0
29/03:30pm 24.5 22.1 12.5 47 7.0 S 17 28 9 15 1012.8 1012.3 0.0
29/03:00pm 24.7 22.3 12.6 47 7.1 S 17 22 9 12 1012.8 1012.3 0.0
29/02:30pm 25.0 22.3 12.9 47 7.1 S 19 32 10 17 1012.8 1012.3 0.0
29/02:00pm 25.2 22.8 12.8 46 7.3 S 17 28 9 15 1013.2 1012.7 0.0
29/01:30pm 25.9 23.1 13.1 45 7.6 SSE 20 26 11 14 1013.4 1012.9 0.0
29/01:00pm 25.4 23.2 13.3 47 7.2 SSE 17 28 9 15 1013.5 1013.0 0.0
29/12:30pm 24.8 22.5 13.0 47 6.9 S 17 28 9 15 1013.8 1013.3 0.0
29/12:00pm 23.4 20.7 13.6 54 5.8 SSE 20 32 11 17 1013.5 1013.0 0.0
29/11:30am 22.4 20.3 13.7 58 5.1 ESE 17 28 9 15 1013.7 1013.2 0.0

Other Formats:

Comma delimited format used in spreadsheet applications
http://www.bom.gov.au/fwo/IDW60801/IDW60801.95637.axf

JavaScript Object Notation format (JSON) in row-major order
http://www.bom.gov.au/fwo/IDW60801/IDW60801.95637.json